| time (UTC) | temp F | wind direction | speed MPH | gust MPH | rain 1hr in | rain 24hr in | rain mn in | humidity % | barometer mb |
| 20260902041535 | 66 | 44 | 0.0 | 0.0 | 0.00 | 0.00 | 0.00 | 61 | 1011.8 |
| 20260902040029 | 66 | 44 | 0.0 | 0.0 | 0.00 | 0.00 | 0.00 | 59 | 1011.8 |
| 20260902034530 | 67 | 44 | 0.0 | 0.0 | 0.00 | 0.00 | 0.00 | 59 | 1011.8 |
| 20260902033028 | 67 | 44 | 0.0 | 0.0 | 0.00 | 0.00 | 0.00 | 59 | 1011.6 |
| 20260902031528 | 67 | 44 | 0.0 | 0.0 | 0.00 | 0.00 | 0.00 | 59 | 1011.5 |
| 20260902030029 | 68 | 44 | 0.0 | 0.0 | 0.00 | 0.00 | 0.00 | 57 | 1011.3 |
| 20260902024532 | 68 | 44 | 0.0 | 0.0 | 0.00 | 0.00 | 0.00 | 55 | 1011.1 |
| 20260902023029 | 69 | 44 | 0.0 | 0.0 | 0.00 | 0.00 | 0.00 | 53 | 1011.2 |
| 20260902021528 | 70 | 44 | 0.0 | 0.0 | 0.00 | 0.00 | 0.00 | 53 | 1011.2 |
| 20260902020027 | 70 | 44 | 0.0 | 0.0 | 0.00 | 0.00 | 0.00 | 51 | 1011.2 |
| 20260902014527 | 71 | 44 | 0.0 | 0.0 | 0.00 | 0.00 | 0.00 | 49 | 1011.2 |
| 20260902013027 | 71 | 44 | 0.0 | 0.0 | 0.00 | 0.00 | 0.00 | 51 | 1010.9 |
| 20260902011527 | 72 | 44 | 0.0 | 0.0 | 0.00 | 0.00 | 0.00 | 51 | 1010.7 |
| 20260902010027 | 73 | 44 | 0.0 | 0.0 | 0.00 | 0.00 | 0.00 | 51 | 1010.6 |
| 20260902004527 | 74 | 44 | 0.0 | 0.0 | 0.00 | 0.00 | 0.00 | 52 | 1010.1 |
| 20260902003027 | 74 | 44 | 0.0 | 0.0 | 0.00 | 0.00 | 0.00 | 54 | 1010.1 |
| 20260902001534 | 76 | 44 | 0.0 | 0.0 | 0.00 | 0.00 | 0.00 | 53 | 1010.1 |
| 20260902000029 | 76 | 44 | 0.0 | 0.0 | 0.00 | 0.00 | 0.00 | 51 | 1010.1 |
| 20260901234525 | 77 | 44 | 0.0 | 0.0 | 0.00 | 0.00 | 0.00 | 50 | 1010.2 |
| 20260901233025 | 77 | 44 | 0.0 | 0.0 | 0.00 | 0.00 | 0.00 | 49 | 1010.1 |
| 20260901231524 | 78 | 44 | 0.0 | 0.0 | 0.00 | 0.00 | 0.00 | 47 | 1010.1 |
| 20260901230025 | 79 | 44 | 0.0 | 0.0 | 0.00 | 0.00 | 0.00 | 45 | 1010.2 |
| 20260901224524 | 80 | 44 | 0.0 | 0.0 | 0.00 | 0.00 | 0.00 | 42 | 1010.3 |
| 20260901223025 | 81 | 44 | 0.0 | 0.0 | 0.00 | 0.00 | 0.00 | 40 | 1010.3 |
| 20260901221524 | 82 | 44 | 0.0 | 2.0 | 0.00 | 0.00 | 0.00 | 36 | 1010.1 |
| 20260901220024 | 83 | 44 | 0.0 | 0.0 | 0.00 | 0.00 | 0.00 | 38 | 1010.1 |
| 20260901214524 | 83 | 25 | 0.0 | 2.0 | 0.00 | 0.00 | 0.00 | 38 | 1010.0 |
| 20260901213023 | 83 | 38 | 0.0 | 1.0 | 0.00 | 0.00 | 0.00 | 36 | 1010.0 |
| 20260901211524 | 84 | 37 | 0.0 | 4.0 | 0.00 | 0.00 | 0.00 | 32 | 1010.0 |
| 20260901210022 | 85 | 40 | 0.0 | 2.0 | 0.00 | 0.00 | 0.00 | 35 | 1010.0 |
| 20260901204521 | 86 | 56 | 0.0 | 2.0 | 0.00 | 0.00 | 0.00 | 31 | 1010.1 |
| 20260901203024 | 86 | 20 | 0.0 | 4.0 | 0.00 | 0.00 | 0.00 | 27 | 1010.2 |
| 20260901201516 | 86 | 11 | 0.0 | 4.0 | 0.00 | 0.00 | 0.00 | 28 | 1010.3 |
| 20260901200016 | 86 | 79 | 0.0 | 5.0 | 0.00 | 0.00 | 0.00 | 27 | 1010.4 |
| 20260901194514 | 86 | 42 | 0.0 | 3.0 | 0.00 | 0.00 | 0.00 | 26 | 1010.4 |
| 20260901193014 | 86 | 24 | 0.0 | 4.0 | 0.00 | 0.00 | 0.00 | 26 | 1010.5 |
| 20260901191519 | 85 | 51 | 0.0 | 2.0 | 0.00 | 0.00 | 0.00 | 35 | 1010.8 |
| 20260901190010 | 85 | 59 | 0.0 | 4.0 | 0.00 | 0.00 | 0.00 | 32 | 1010.9 |
| 20260901184507 | 85 | 304 | 0.0 | 1.0 | 0.00 | 0.00 | 0.00 | 30 | 1011.1 |
| 20260901183004 | 84 | 42 | 1.0 | 6.0 | 0.00 | 0.00 | 0.00 | 32 | 1011.3 |
| 20260901181503 | 83 | 9 | 0.0 | 0.0 | 0.00 | 0.00 | 0.00 | 35 | 1011.4 |
| 20260901174556 | 82 | 36 | 0.0 | 2.0 | 0.00 | 0.00 | 0.00 | 33 | 1011.7 |
| 20260901173101 | 81 | 305 | 0.0 | 0.0 | 0.00 | 0.00 | 0.00 | 40 | 1011.8 |
| 20260901171601 | 81 | 22 | 0.0 | 0.0 | 0.00 | 0.00 | 0.00 | 41 | 1012.1 |
| 20260901170050 | 80 | 28 | 0.0 | 0.0 | 0.00 | 0.00 | 0.00 | 43 | 1012.4 |
| 20260901164549 | 80 | 350 | 0.0 | 0.0 | 0.00 | 0.00 | 0.00 | 42 | 1012.4 |
| 20260901163046 | 79 | 25 | 0.0 | 0.0 | 0.00 | 0.00 | 0.00 | 42 | 1012.4 |
| 20260901161600 | 79 | 26 | 0.0 | 0.0 | 0.00 | 0.00 | 0.00 | 45 | 1012.6 |
| 20260901160041 | 77 | 25 | 0.0 | 0.0 | 0.00 | 0.00 | 0.00 | 58 | 1012.7 |
| 20260901154550 | 77 | 25 | 0.0 | 0.0 | 0.00 | 0.00 | 0.00 | 61 | 1012.8 |
| 20260901153043 | 76 | 25 | 0.0 | 0.0 | 0.00 | 0.00 | 0.00 | 62 | 1012.7 |
| 20260901151534 | 76 | 25 | 0.0 | 0.0 | 0.00 | 0.00 | 0.00 | 63 | 1012.7 |
| 20260901150038 | 74 | 25 | 0.0 | 0.0 | 0.00 | 0.00 | 0.00 | 66 | 1012.4 |
| 20260901144537 | 73 | 25 | 0.0 | 0.0 | 0.00 | 0.00 | 0.00 | 79 | 1012.4 |
| 20260901143025 | 72 | 25 | 0.0 | 0.0 | 0.00 | 0.00 | 0.00 | 78 | 1012.4 |
| 20260901141523 | 71 | 25 | 0.0 | 0.0 | 0.00 | 0.00 | 0.00 | 81 | 1012.4 |
| 20260901140020 | 69 | 25 | 0.0 | 0.0 | 0.00 | 0.00 | 0.00 | 84 | 1012.6 |
| 20260901134522 | 68 | 25 | 0.0 | 0.0 | 0.00 | 0.00 | 0.00 | 86 | 1012.7 |
| 20260901133019 | 66 | 25 | 0.0 | 0.0 | 0.00 | 0.00 | 0.00 | 88 | 1012.8 |
| 20260901131520 | 64 | 25 | 0.0 | 0.0 | 0.00 | 0.00 | 0.00 | 87 | 1012.7 |
| 20260901130023 | 63 | 25 | 0.0 | 0.0 | 0.00 | 0.00 | 0.00 | 87 | 1012.7 |
| 20260901124519 | 62 | 25 | 0.0 | 0.0 | 0.00 | 0.00 | 0.00 | 86 | 1012.7 |
| 20260901123016 | 62 | 25 | 0.0 | 0.0 | 0.00 | 0.00 | 0.00 | 86 | 1012.8 |
| 20260901121515 | 62 | 25 | 0.0 | 0.0 | 0.00 | 0.00 | 0.00 | 85 | 1012.7 |
| 20260901120015 | 61 | 25 | 0.0 | 0.0 | 0.00 | 0.00 | 0.00 | 86 | 1012.4 |
| 20260901114514 | 61 | 25 | 0.0 | 0.0 | 0.00 | 0.00 | 0.00 | 86 | 1012.3 |
| 20260901113011 | 62 | 25 | 0.0 | 0.0 | 0.00 | 0.00 | 0.00 | 86 | 1011.7 |
| 20260901111510 | 62 | 25 | 0.0 | 0.0 | 0.00 | 0.00 | 0.00 | 86 | 1011.9 |
| 20260901110008 | 62 | 25 | 0.0 | 0.0 | 0.00 | 0.00 | 0.00 | 86 | 1011.6 |
| 20260901104509 | 62 | 25 | 0.0 | 0.0 | 0.00 | 0.00 | 0.00 | 86 | 1011.7 |
| 20260901103008 | 63 | 25 | 0.0 | 0.0 | 0.00 | 0.00 | 0.00 | 86 | 1011.7 |
| 20260901101507 | 63 | 25 | 0.0 | 0.0 | 0.00 | 0.00 | 0.00 | 86 | 1011.5 |
| 20260901100004 | 63 | 25 | 0.0 | 0.0 | 0.00 | 0.00 | 0.00 | 86 | 1011.6 |
| 20260901094503 | 63 | 25 | 0.0 | 0.0 | 0.00 | 0.00 | 0.00 | 86 | 1011.5 |
| 20260901093001 | 64 | 25 | 0.0 | 0.0 | 0.00 | 0.00 | 0.00 | 86 | 1011.5 |
| 20260901091607 | 64 | 25 | 0.0 | 0.0 | 0.00 | 0.00 | 0.00 | 86 | 1011.7 |
| 20260901090100 | 64 | 25 | 0.0 | 0.0 | 0.00 | 0.00 | 0.00 | 86 | 1011.6 |
| 20260901084559 | 65 | 25 | 0.0 | 0.0 | 0.00 | 0.00 | 0.00 | 86 | 1011.5 |
| 20260901083056 | 65 | 26 | 0.0 | 0.0 | 0.00 | 0.00 | 0.00 | 86 | 1011.5 |
| 20260901081553 | 65 | 25 | 0.0 | 0.0 | 0.00 | 0.00 | 0.00 | 86 | 1011.6 |
| 20260901074549 | 66 | 25 | 0.0 | 0.0 | 0.00 | 0.00 | 0.00 | 86 | 1011.8 |
| 20260901073058 | 66 | 25 | 0.0 | 0.0 | 0.00 | 0.00 | 0.00 | 86 | 1011.5 |
| 20260901071548 | 66 | 25 | 0.0 | 0.0 | 0.00 | 0.00 | 0.00 | 86 | 1011.5 |
| 20260901064547 | 66 | 25 | 0.0 | 0.0 | 0.00 | 0.00 | 0.00 | 86 | 1011.5 |
| 20260901063046 | 66 | 25 | 0.0 | 0.0 | 0.00 | 0.00 | 0.00 | 86 | 1011.6 |
| 20260901061545 | 67 | 25 | 0.0 | 0.0 | 0.00 | 0.00 | 0.00 | 86 | 1011.4 |
| 20260901060044 | 67 | 25 | 0.0 | 0.0 | 0.00 | 0.00 | 0.00 | 85 | 1011.5 |
| 20260901054545 | 67 | 25 | 0.0 | 0.0 | 0.00 | 0.00 | 0.00 | 86 | 1011.5 |
| 20260901053045 | 68 | 25 | 0.0 | 0.0 | 0.00 | 0.00 | 0.00 | 85 | 1011.4 |
| 20260901051544 | 68 | 26 | 0.0 | 0.0 | 0.00 | 0.00 | 0.00 | 85 | 1011.2 |
| 20260901050037 | 68 | 25 | 0.0 | 0.0 | 0.00 | 0.00 | 0.00 | 86 | 1011.3 |
| 20260901044552 | 69 | 25 | 0.0 | 0.0 | 0.00 | 0.00 | 0.00 | 85 | 1011.2 |
| 20260901043038 | 69 | 26 | 0.0 | 0.0 | 0.00 | 0.00 | 0.00 | 86 | 1011.2 |